owner,sensor,date,latitude,longitude,air_temperature,qcFlag 
COMPS,ioos:station:USF.COMPS:FHP:1,2011-12-01T00:00:00Z,28.1530,-82.8010,14.7,1111122 
COMPS,ioos:station:USF.COMPS:FHP:1,2011-12-01T01:00:00Z,28.1530,-82.8010,14.9,1111122 
COMPS,ioos:station:USF.COMPS:FHP:1,2011-12-01T02:00:00Z,28.1530,-82.8010,14.7,1111122 
COMPS,ioos:station:USF.COMPS:FHP:1,2011-12-01T03:00:00Z,28.1530,-82.8010,14.8,1111122 
COMPS,ioos:station:USF.COMPS:FHP:1,2011-12-01T04:00:00Z,28.1530,-82.8010,14.5,1111122 
COMPS,ioos:station:USF.COMPS:FHP:1,2011-12-01T05:00:00Z,28.1530,-82.8010,13.9,1111122 
COMPS,ioos:station:USF.COMPS:FHP:1,2011-12-01T06:00:00Z,28.1530,-82.8010,12.6,1111122 
COMPS,ioos:station:USF.COMPS:FHP:1,2011-12-01T07:00:00Z,28.1530,-82.8010,11.7,1111122 
COMPS,ioos:station:USF.COMPS:FHP:1,2011-12-01T08:00:00Z,28.1530,-82.8010,11.6,1111122 
COMPS,ioos:station:USF.COMPS:FHP:1,2011-12-01T09:00:00Z,28.1530,-82.8010,10.3,1111122 
COMPS,ioos:station:USF.COMPS:FHP:1,2011-12-01T10:00:00Z,28.1530,-82.8010,8.6,1111122 
COMPS,ioos:station:USF.COMPS:FHP:1,2011-12-01T11:00:00Z,28.1530,-82.8010,7.9,1111122 
COMPS,ioos:station:USF.COMPS:FHP:1,2011-12-01T12:00:00Z,28.1530,-82.8010,7.4,1111122 
COMPS,ioos:station:USF.COMPS:FHP:1,2011-12-01T13:00:00Z,28.1530,-82.8010,7.7,1111122 
COMPS,ioos:station:USF.COMPS:FHP:1,2011-12-01T14:00:00Z,28.1530,-82.8010,9.2,1111122 
COMPS,ioos:station:USF.COMPS:FHP:1,2011-12-01T15:00:00Z,28.1530,-82.8010,11.7,1111122 
COMPS,ioos:station:USF.COMPS:FHP:1,2011-12-01T16:00:00Z,28.1530,-82.8010,12.2,1111122 
COMPS,ioos:station:USF.COMPS:FHP:1,2011-12-01T17:00:00Z,28.1530,-82.8010,13.0,1111122 
COMPS,ioos:station:USF.COMPS:FHP:1,2011-12-01T18:00:00Z,28.1530,-82.8010,13.8,1111122 
COMPS,ioos:station:USF.COMPS:FHP:1,2011-12-01T19:00:00Z,28.1530,-82.8010,14.6,1111122 
COMPS,ioos:station:USF.COMPS:FHP:1,2011-12-01T20:00:00Z,28.1530,-82.8010,15.2,1111122 
COMPS,ioos:station:USF.COMPS:FHP:1,2011-12-01T21:00:00Z,28.1530,-82.8010,15.9,1111122 
COMPS,ioos:station:USF.COMPS:FHP:1,2011-12-01T22:00:00Z,28.1530,-82.8010,16.5,1111122 
COMPS,ioos:station:USF.COMPS:FHP:1,2011-12-01T23:00:00Z,28.1530,-82.8010,16.7,1111122 
COMPS,ioos:station:USF.COMPS:FHP:1,2011-12-02T00:00:00Z,28.1530,-82.8010,16.6,1111122 
COMPS,ioos:station:USF.COMPS:FHP:1,2011-12-02T01:00:00Z,28.1530,-82.8010,15.9,1111122 
COMPS,ioos:station:USF.COMPS:FHP:1,2011-12-02T02:00:00Z,28.1530,-82.8010,15.9,1111122 
COMPS,ioos:station:USF.COMPS:FHP:1,2011-12-02T04:00:00Z,28.1530,-82.8010,14.8,1111122 
COMPS,ioos:station:USF.COMPS:FHP:1,2011-12-02T05:00:00Z,28.1530,-82.8010,14.6,1111122 
COMPS,ioos:station:USF.COMPS:FHP:1,2011-12-02T06:00:00Z,28.1530,-82.8010,14.3,1111122 
COMPS,ioos:station:USF.COMPS:FHP:1,2011-12-02T07:00:00Z,28.1530,-82.8010,13.8,1111122 
COMPS,ioos:station:USF.COMPS:FHP:1,2011-12-02T08:00:00Z,28.1530,-82.8010,13.6,1111122 
COMPS,ioos:station:USF.COMPS:FHP:1,2011-12-02T09:00:00Z,28.1530,-82.8010,13.6,1111122 
COMPS,ioos:station:USF.COMPS:FHP:1,2011-12-02T10:00:00Z,28.1530,-82.8010,13.5,1111122 
COMPS,ioos:station:USF.COMPS:FHP:1,2011-12-02T11:00:00Z,28.1530,-82.8010,13.0,1111122 
COMPS,ioos:station:USF.COMPS:FHP:1,2011-12-02T12:00:00Z,28.1530,-82.8010,12.7,1111122 
COMPS,ioos:station:USF.COMPS:FHP:1,2011-12-02T13:00:00Z,28.1530,-82.8010,13.0,1111122 
COMPS,ioos:station:USF.COMPS:FHP:1,2011-12-02T14:00:00Z,28.1530,-82.8010,14.8,1111122 
COMPS,ioos:station:USF.COMPS:FHP:1,2011-12-02T15:00:00Z,28.1530,-82.8010,16.1,1111122 
COMPS,ioos:station:USF.COMPS:FHP:1,2011-12-02T16:00:00Z,28.1530,-82.8010,16.4,1111122 
COMPS,ioos:station:USF.COMPS:FHP:1,2011-12-02T17:00:00Z,28.1530,-82.8010,17.2,1111122 
COMPS,ioos:station:USF.COMPS:FHP:1,2011-12-02T18:00:00Z,28.1530,-82.8010,17.4,1111122 
COMPS,ioos:station:USF.COMPS:FHP:1,2011-12-02T19:00:00Z,28.1530,-82.8010,18.1,1111122 
COMPS,ioos:station:USF.COMPS:FHP:1,2011-12-02T20:00:00Z,28.1530,-82.8010,18.7,1111122 
COMPS,ioos:station:USF.COMPS:FHP:1,2011-12-02T21:00:00Z,28.1530,-82.8010,19.0,1111122 
COMPS,ioos:station:USF.COMPS:FHP:1,2011-12-02T22:00:00Z,28.1530,-82.8010,21.2,1111122 
COMPS,ioos:station:USF.COMPS:FHP:1,2011-12-02T23:00:00Z,28.1530,-82.8010,19.7,1111122 
COMPS,ioos:station:USF.COMPS:FHP:1,2011-12-03T00:00:00Z,28.1530,-82.8010,19.5,1111122 
COMPS,ioos:station:USF.COMPS:FHP:1,2011-12-03T01:00:00Z,28.1530,-82.8010,18.7,1111122 
COMPS,ioos:station:USF.COMPS:FHP:1,2011-12-03T02:00:00Z,28.1530,-82.8010,17.8,1111122 
COMPS,ioos:station:USF.COMPS:FHP:1,2011-12-03T03:00:00Z,28.1530,-82.8010,16.9,1111122 
COMPS,ioos:station:USF.COMPS:FHP:1,2011-12-03T04:00:00Z,28.1530,-82.8010,16.2,1111122 
COMPS,ioos:station:USF.COMPS:FHP:1,2011-12-03T05:00:00Z,28.1530,-82.8010,15.5,1111122 
COMPS,ioos:station:USF.COMPS:FHP:1,2011-12-03T06:00:00Z,28.1530,-82.8010,14.9,1111122 
COMPS,ioos:station:USF.COMPS:FHP:1,2011-12-03T07:00:00Z,28.1530,-82.8010,15.0,1111122 
COMPS,ioos:station:USF.COMPS:FHP:1,2011-12-03T08:00:00Z,28.1530,-82.8010,14.6,1111122 
COMPS,ioos:station:USF.COMPS:FHP:1,2011-12-03T09:00:00Z,28.1530,-82.8010,15.0,1111122 
COMPS,ioos:station:USF.COMPS:FHP:1,2011-12-03T10:00:00Z,28.1530,-82.8010,14.8,1111122 
COMPS,ioos:station:USF.COMPS:FHP:1,2011-12-03T11:00:00Z,28.1530,-82.8010,14.7,1111122 
COMPS,ioos:station:USF.COMPS:FHP:1,2011-12-03T12:00:00Z,28.1530,-82.8010,14.3,1111122 
COMPS,ioos:station:USF.COMPS:FHP:1,2011-12-03T13:00:00Z,28.1530,-82.8010,14.4,1111122 
COMPS,ioos:station:USF.COMPS:FHP:1,2011-12-03T14:00:00Z,28.1530,-82.8010,15.9,1111122 
COMPS,ioos:station:USF.COMPS:FHP:1,2011-12-03T15:00:00Z,28.1530,-82.8010,18.5,1111122 
COMPS,ioos:station:USF.COMPS:FHP:1,2011-12-03T16:00:00Z,28.1530,-82.8010,20.7,1111122 
COMPS,ioos:station:USF.COMPS:FHP:1,2011-12-03T17:00:00Z,28.1530,-82.8010,22.3,1111122 
COMPS,ioos:station:USF.COMPS:FHP:1,2011-12-03T18:00:00Z,28.1530,-82.8010,23.2,1111122 
COMPS,ioos:station:USF.COMPS:FHP:1,2011-12-03T19:00:00Z,28.1530,-82.8010,24.4,1111122 
COMPS,ioos:station:USF.COMPS:FHP:1,2011-12-03T20:00:00Z,28.1530,-82.8010,25.2,1111122 
COMPS,ioos:station:USF.COMPS:FHP:1,2011-12-03T21:00:00Z,28.1530,-82.8010,24.7,1111122 
COMPS,ioos:station:USF.COMPS:FHP:1,2011-12-03T22:00:00Z,28.1530,-82.8010,24.2,1111122 
COMPS,ioos:station:USF.COMPS:FHP:1,2011-12-03T23:00:00Z,28.1530,-82.8010,22.4,1111122 
COMPS,ioos:station:USF.COMPS:FHP:1,2011-12-04T00:00:00Z,28.1530,-82.8010,21.8,1111122 
COMPS,ioos:station:USF.COMPS:FHP:1,2011-12-04T01:00:00Z,28.1530,-82.8010,21.3,1111122 
COMPS,ioos:station:USF.COMPS:FHP:1,2011-12-04T02:00:00Z,28.1530,-82.8010,20.2,1111122 
COMPS,ioos:station:USF.COMPS:FHP:1,2011-12-04T03:00:00Z,28.1530,-82.8010,19.4,1111122 
COMPS,ioos:station:USF.COMPS:FHP:1,2011-12-04T04:00:00Z,28.1530,-82.8010,18.7,1111122 
COMPS,ioos:station:USF.COMPS:FHP:1,2011-12-04T05:00:00Z,28.1530,-82.8010,18.0,1111122 
COMPS,ioos:station:USF.COMPS:FHP:1,2011-12-04T06:00:00Z,28.1530,-82.8010,17.4,1111122 
COMPS,ioos:station:USF.COMPS:FHP:1,2011-12-04T07:00:00Z,28.1530,-82.8010,16.9,1111122 
COMPS,ioos:station:USF.COMPS:FHP:1,2011-12-04T08:00:00Z,28.1530,-82.8010,16.3,1111122 
COMPS,ioos:station:USF.COMPS:FHP:1,2011-12-04T09:00:00Z,28.1530,-82.8010,16.5,1111122 
COMPS,ioos:station:USF.COMPS:FHP:1,2011-12-04T10:00:00Z,28.1530,-82.8010,15.9,1111122 
COMPS,ioos:station:USF.COMPS:FHP:1,2011-12-04T11:00:00Z,28.1530,-82.8010,15.9,1111122 
COMPS,ioos:station:USF.COMPS:FHP:1,2011-12-04T12:00:00Z,28.1530,-82.8010,16.1,1111122 
COMPS,ioos:station:USF.COMPS:FHP:1,2011-12-04T13:00:00Z,28.1530,-82.8010,16.4,1111122 
COMPS,ioos:station:USF.COMPS:FHP:1,2011-12-04T14:00:00Z,28.1530,-82.8010,18.1,1111122 
COMPS,ioos:station:USF.COMPS:FHP:1,2011-12-04T15:00:00Z,28.1530,-82.8010,20.6,1111122 
COMPS,ioos:station:USF.COMPS:FHP:1,2011-12-04T16:00:00Z,28.1530,-82.8010,22.7,1111122 
COMPS,ioos:station:USF.COMPS:FHP:1,2011-12-04T17:00:00Z,28.1530,-82.8010,24.2,1111122 
COMPS,ioos:station:USF.COMPS:FHP:1,2011-12-04T18:00:00Z,28.1530,-82.8010,24.7,1111122 
COMPS,ioos:station:USF.COMPS:FHP:1,2011-12-04T19:00:00Z,28.1530,-82.8010,24.4,1111122 
COMPS,ioos:station:USF.COMPS:FHP:1,2011-12-04T20:00:00Z,28.1530,-82.8010,25.0,1111122 
COMPS,ioos:station:USF.COMPS:FHP:1,2011-12-04T21:00:00Z,28.1530,-82.8010,25.1,1111122 
COMPS,ioos:station:USF.COMPS:FHP:1,2011-12-04T22:00:00Z,28.1530,-82.8010,24.3,1111122 
COMPS,ioos:station:USF.COMPS:FHP:1,2011-12-04T23:00:00Z,28.1530,-82.8010,22.8,1111122 
COMPS,ioos:station:USF.COMPS:FHP:1,2011-12-05T00:00:00Z,28.1530,-82.8010,21.9,1111122 
COMPS,ioos:station:USF.COMPS:FHP:1,2011-12-05T01:00:00Z,28.1530,-82.8010,21.0,1111122 
COMPS,ioos:station:USF.COMPS:FHP:1,2011-12-05T02:00:00Z,28.1530,-82.8010,20.4,1111122 
COMPS,ioos:station:USF.COMPS:FHP:1,2011-12-05T03:00:00Z,28.1530,-82.8010,19.8,1111122 
COMPS,ioos:station:USF.COMPS:FHP:1,2011-12-05T04:00:00Z,28.1530,-82.8010,19.8,1111122 
COMPS,ioos:station:USF.COMPS:FHP:1,2011-12-05T05:00:00Z,28.1530,-82.8010,19.2,1111122 
COMPS,ioos:station:USF.COMPS:FHP:1,2011-12-05T15:00:00Z,28.1530,-82.8010,20.7,1111122 
COMPS,ioos:station:USF.COMPS:FHP:1,2011-12-05T16:00:00Z,28.1530,-82.8010,22.9,1111122 
COMPS,ioos:station:USF.COMPS:FHP:1,2011-12-05T17:00:00Z,28.1530,-82.8010,24.5,1111122 
COMPS,ioos:station:USF.COMPS:FHP:1,2011-12-05T18:00:00Z,28.1530,-82.8010,24.9,1111122 
COMPS,ioos:station:USF.COMPS:FHP:1,2011-12-05T19:00:00Z,28.1530,-82.8010,25.6,1111122 
COMPS,ioos:station:USF.COMPS:FHP:1,2011-12-05T20:00:00Z,28.1530,-82.8010,21.5,1111122 
COMPS,ioos:station:USF.COMPS:FHP:1,2011-12-05T21:00:00Z,28.1530,-82.8010,21.1,1111122 
COMPS,ioos:station:USF.COMPS:FHP:1,2011-12-05T22:00:00Z,28.1530,-82.8010,21.5,1111122 
COMPS,ioos:station:USF.COMPS:FHP:1,2011-12-05T23:00:00Z,28.1530,-82.8010,21.6,1111122 
COMPS,ioos:station:USF.COMPS:FHP:1,2011-12-06T00:00:00Z,28.1530,-82.8010,21.4,1111122 
COMPS,ioos:station:USF.COMPS:FHP:1,2011-12-06T01:00:00Z,28.1530,-82.8010,20.6,1111122 
COMPS,ioos:station:USF.COMPS:FHP:1,2011-12-06T02:00:00Z,28.1530,-82.8010,20.9,1111122 
COMPS,ioos:station:USF.COMPS:FHP:1,2011-12-06T03:00:00Z,28.1530,-82.8010,20.9,1111122 
COMPS,ioos:station:USF.COMPS:FHP:1,2011-12-06T04:00:00Z,28.1530,-82.8010,20.6,1111122 
COMPS,ioos:station:USF.COMPS:FHP:1,2011-12-06T05:00:00Z,28.1530,-82.8010,19.8,1111122 
COMPS,ioos:station:USF.COMPS:FHP:1,2011-12-06T06:00:00Z,28.1530,-82.8010,19.1,1111122 
COMPS,ioos:station:USF.COMPS:FHP:1,2011-12-06T07:00:00Z,28.1530,-82.8010,18.7,1111122 
COMPS,ioos:station:USF.COMPS:FHP:1,2011-12-06T08:00:00Z,28.1530,-82.8010,18.5,1111122 
COMPS,ioos:station:USF.COMPS:FHP:1,2011-12-06T09:00:00Z,28.1530,-82.8010,18.0,1111122 
COMPS,ioos:station:USF.COMPS:FHP:1,2011-12-06T10:00:00Z,28.1530,-82.8010,17.7,1111122 
COMPS,ioos:station:USF.COMPS:FHP:1,2011-12-06T11:00:00Z,28.1530,-82.8010,17.6,1111122 
COMPS,ioos:station:USF.COMPS:FHP:1,2011-12-06T12:00:00Z,28.1530,-82.8010,17.7,1111122 
COMPS,ioos:station:USF.COMPS:FHP:1,2011-12-06T13:00:00Z,28.1530,-82.8010,18.3,1111122 
COMPS,ioos:station:USF.COMPS:FHP:1,2011-12-06T14:00:00Z,28.1530,-82.8010,20.0,1111122 
COMPS,ioos:station:USF.COMPS:FHP:1,2011-12-06T15:00:00Z,28.1530,-82.8010,21.9,1111122 
COMPS,ioos:station:USF.COMPS:FHP:1,2011-12-06T16:00:00Z,28.1530,-82.8010,22.3,1111122 
COMPS,ioos:station:USF.COMPS:FHP:1,2011-12-06T17:00:00Z,28.1530,-82.8010,23.2,1111122 
COMPS,ioos:station:USF.COMPS:FHP:1,2011-12-06T18:00:00Z,28.1530,-82.8010,23.1,1111122 
COMPS,ioos:station:USF.COMPS:FHP:1,2011-12-06T19:00:00Z,28.1530,-82.8010,21.7,1111122 
COMPS,ioos:station:USF.COMPS:FHP:1,2011-12-06T20:00:00Z,28.1530,-82.8010,22.2,1111122 
COMPS,ioos:station:USF.COMPS:FHP:1,2011-12-06T21:00:00Z,28.1530,-82.8010,22.2,1111122 
COMPS,ioos:station:USF.COMPS:FHP:1,2011-12-06T22:00:00Z,28.1530,-82.8010,21.5,1111122 
COMPS,ioos:station:USF.COMPS:FHP:1,2011-12-06T23:00:00Z,28.1530,-82.8010,20.9,1111122 
COMPS,ioos:station:USF.COMPS:FHP:1,2011-12-07T00:00:00Z,28.1530,-82.8010,20.5,1111122 
COMPS,ioos:station:USF.COMPS:FHP:1,2011-12-07T01:00:00Z,28.1530,-82.8010,19.9,1111122 
COMPS,ioos:station:USF.COMPS:FHP:1,2011-12-07T02:00:00Z,28.1530,-82.8010,19.8,1111122 
COMPS,ioos:station:USF.COMPS:FHP:1,2011-12-07T03:00:00Z,28.1530,-82.8010,19.5,1111122 
COMPS,ioos:station:USF.COMPS:FHP:1,2011-12-07T04:00:00Z,28.1530,-82.8010,19.5,1111122 
COMPS,ioos:station:USF.COMPS:FHP:1,2011-12-07T05:00:00Z,28.1530,-82.8010,19.3,1111122 
COMPS,ioos:station:USF.COMPS:FHP:1,2011-12-07T06:00:00Z,28.1530,-82.8010,19.1,1111122 
COMPS,ioos:station:USF.COMPS:FHP:1,2011-12-07T07:00:00Z,28.1530,-82.8010,19.0,1111122 
COMPS,ioos:station:USF.COMPS:FHP:1,2011-12-07T08:00:00Z,28.1530,-82.8010,18.8,1111122 
COMPS,ioos:station:USF.COMPS:FHP:1,2011-12-07T09:00:00Z,28.1530,-82.8010,18.6,1111122 
COMPS,ioos:station:USF.COMPS:FHP:1,2011-12-07T10:00:00Z,28.1530,-82.8010,18.6,1111122 
COMPS,ioos:station:USF.COMPS:FHP:1,2011-12-07T11:00:00Z,28.1530,-82.8010,19.2,1111122 
COMPS,ioos:station:USF.COMPS:FHP:1,2011-12-07T12:00:00Z,28.1530,-82.8010,19.2,1111122 
COMPS,ioos:station:USF.COMPS:FHP:1,2011-12-07T13:00:00Z,28.1530,-82.8010,19.2,1111122 
COMPS,ioos:station:USF.COMPS:FHP:1,2011-12-07T14:00:00Z,28.1530,-82.8010,20.2,1111122 
COMPS,ioos:station:USF.COMPS:FHP:1,2011-12-07T15:00:00Z,28.1530,-82.8010,21.3,1111122 
COMPS,ioos:station:USF.COMPS:FHP:1,2011-12-07T16:00:00Z,28.1530,-82.8010,21.6,1111122 
COMPS,ioos:station:USF.COMPS:FHP:1,2011-12-07T17:00:00Z,28.1530,-82.8010,21.6,1111122 
COMPS,ioos:station:USF.COMPS:FHP:1,2011-12-07T18:00:00Z,28.1530,-82.8010,21.7,1111122 
COMPS,ioos:station:USF.COMPS:FHP:1,2011-12-07T19:00:00Z,28.1530,-82.8010,21.5,1111122 
COMPS,ioos:station:USF.COMPS:FHP:1,2011-12-07T20:00:00Z,28.1530,-82.8010,19.8,1111122 
COMPS,ioos:station:USF.COMPS:FHP:1,2011-12-07T21:00:00Z,28.1530,-82.8010,18.9,1111122 
COMPS,ioos:station:USF.COMPS:FHP:1,2011-12-07T22:00:00Z,28.1530,-82.8010,16.2,1111122 
COMPS,ioos:station:USF.COMPS:FHP:1,2011-12-07T23:00:00Z,28.1530,-82.8010,16.0,1111122 
COMPS,ioos:station:USF.COMPS:FHP:1,2011-12-08T00:00:00Z,28.1530,-82.8010,16.1,1111122 
COMPS,ioos:station:USF.COMPS:FHP:1,2011-12-08T01:00:00Z,28.1530,-82.8010,16.0,1111122 
COMPS,ioos:station:USF.COMPS:FHP:1,2011-12-08T02:00:00Z,28.1530,-82.8010,15.1,1111122 
COMPS,ioos:station:USF.COMPS:FHP:1,2011-12-08T03:00:00Z,28.1530,-82.8010,14.6,1111122 
COMPS,ioos:station:USF.COMPS:FHP:1,2011-12-08T04:00:00Z,28.1530,-82.8010,14.1,1111122 
COMPS,ioos:station:USF.COMPS:FHP:1,2011-12-08T05:00:00Z,28.1530,-82.8010,13.5,1111122 
COMPS,ioos:station:USF.COMPS:FHP:1,2011-12-08T06:00:00Z,28.1530,-82.8010,12.9,1111122 
COMPS,ioos:station:USF.COMPS:FHP:1,2011-12-08T07:00:00Z,28.1530,-82.8010,11.6,1111122 
COMPS,ioos:station:USF.COMPS:FHP:1,2011-12-08T08:00:00Z,28.1530,-82.8010,10.8,1111122 
COMPS,ioos:station:USF.COMPS:FHP:1,2011-12-08T09:00:00Z,28.1530,-82.8010,9.9,1111122 
COMPS,ioos:station:USF.COMPS:FHP:1,2011-12-08T10:00:00Z,28.1530,-82.8010,9.1,1111122 
COMPS,ioos:station:USF.COMPS:FHP:1,2011-12-08T11:00:00Z,28.1530,-82.8010,8.7,1111122 
COMPS,ioos:station:USF.COMPS:FHP:1,2011-12-08T12:00:00Z,28.1530,-82.8010,7.9,1111122 
COMPS,ioos:station:USF.COMPS:FHP:1,2011-12-08T13:00:00Z,28.1530,-82.8010,7.0,1111122 
COMPS,ioos:station:USF.COMPS:FHP:1,2011-12-08T14:00:00Z,28.1530,-82.8010,6.9,1111122 
COMPS,ioos:station:USF.COMPS:FHP:1,2011-12-13T07:00:00Z,28.1530,-82.8010,18.1,1111122 
COMPS,ioos:station:USF.COMPS:FHP:1,2011-12-13T08:00:00Z,28.1530,-82.8010,17.9,1111122 
COMPS,ioos:station:USF.COMPS:FHP:1,2011-12-13T17:00:00Z,28.1530,-82.8010,20.9,1111122 
COMPS,ioos:station:USF.COMPS:FHP:1,2011-12-13T18:00:00Z,28.1530,-82.8010,22.3,1111122 
COMPS,ioos:station:USF.COMPS:FHP:1,2011-12-13T19:00:00Z,28.1530,-82.8010,22.0,1111122 
COMPS,ioos:station:USF.COMPS:FHP:1,2011-12-13T20:00:00Z,28.1530,-82.8010,23.3,1111122 
COMPS,ioos:station:USF.COMPS:FHP:1,2011-12-13T21:00:00Z,28.1530,-82.8010,23.7,1111122 
COMPS,ioos:station:USF.COMPS:FHP:1,2011-12-13T22:00:00Z,28.1530,-82.8010,23.1,1111122 
COMPS,ioos:station:USF.COMPS:FHP:1,2011-12-13T23:00:00Z,28.1530,-82.8010,22.2,1111122 
COMPS,ioos:station:USF.COMPS:FHP:1,2011-12-14T00:00:00Z,28.1530,-82.8010,21.2,1111122 
COMPS,ioos:station:USF.COMPS:FHP:1,2011-12-14T01:00:00Z,28.1530,-82.8010,20.4,1111122 
COMPS,ioos:station:USF.COMPS:FHP:1,2011-12-14T02:00:00Z,28.1530,-82.8010,19.6,1111122 
COMPS,ioos:station:USF.COMPS:FHP:1,2011-12-14T03:00:00Z,28.1530,-82.8010,19.2,1111122 
COMPS,ioos:station:USF.COMPS:FHP:1,2011-12-14T04:00:00Z,28.1530,-82.8010,18.8,1111122 
COMPS,ioos:station:USF.COMPS:FHP:1,2011-12-14T05:00:00Z,28.1530,-82.8010,18.2,1111122 
COMPS,ioos:station:USF.COMPS:FHP:1,2011-12-14T06:00:00Z,28.1530,-82.8010,17.7,1111122 
COMPS,ioos:station:USF.COMPS:FHP:1,2011-12-14T07:00:00Z,28.1530,-82.8010,17.3,1111122 
COMPS,ioos:station:USF.COMPS:FHP:1,2011-12-14T08:00:00Z,28.1530,-82.8010,17.0,1111122 
COMPS,ioos:station:USF.COMPS:FHP:1,2011-12-14T09:00:00Z,28.1530,-82.8010,16.9,1111122 
COMPS,ioos:station:USF.COMPS:FHP:1,2011-12-14T10:00:00Z,28.1530,-82.8010,16.7,1111122 
COMPS,ioos:station:USF.COMPS:FHP:1,2011-12-14T11:00:00Z,28.1530,-82.8010,16.5,1111122 
COMPS,ioos:station:USF.COMPS:FHP:1,2011-12-14T12:00:00Z,28.1530,-82.8010,16.3,1111122 
COMPS,ioos:station:USF.COMPS:FHP:1,2011-12-14T13:00:00Z,28.1530,-82.8010,16.3,1111122 
COMPS,ioos:station:USF.COMPS:FHP:1,2011-12-14T14:00:00Z,28.1530,-82.8010,17.5,1111122 
COMPS,ioos:station:USF.COMPS:FHP:1,2011-12-14T15:00:00Z,28.1530,-82.8010,19.8,1111122 
COMPS,ioos:station:USF.COMPS:FHP:1,2011-12-14T16:00:00Z,28.1530,-82.8010,21.6,1111122 
COMPS,ioos:station:USF.COMPS:FHP:1,2011-12-14T17:00:00Z,28.1530,-82.8010,23.2,1111122 
COMPS,ioos:station:USF.COMPS:FHP:1,2011-12-14T18:00:00Z,28.1530,-82.8010,23.8,1111122 
COMPS,ioos:station:USF.COMPS:FHP:1,2011-12-14T19:00:00Z,28.1530,-82.8010,24.2,1111122 
COMPS,ioos:station:USF.COMPS:FHP:1,2011-12-14T20:00:00Z,28.1530,-82.8010,24.9,1111122 
COMPS,ioos:station:USF.COMPS:FHP:1,2011-12-14T21:00:00Z,28.1530,-82.8010,25.3,1111122 
COMPS,ioos:station:USF.COMPS:FHP:1,2011-12-14T22:00:00Z,28.1530,-82.8010,24.6,1111122 
COMPS,ioos:station:USF.COMPS:FHP:1,2011-12-14T23:00:00Z,28.1530,-82.8010,22.9,1111122 
COMPS,ioos:station:USF.COMPS:FHP:1,2011-12-15T00:00:00Z,28.1530,-82.8010,21.8,1111122 
COMPS,ioos:station:USF.COMPS:FHP:1,2011-12-15T01:00:00Z,28.1530,-82.8010,21.0,1111122 
COMPS,ioos:station:USF.COMPS:FHP:1,2011-12-15T02:00:00Z,28.1530,-82.8010,20.2,1111122 
COMPS,ioos:station:USF.COMPS:FHP:1,2011-12-15T03:00:00Z,28.1530,-82.8010,19.3,1111122 
COMPS,ioos:station:USF.COMPS:FHP:1,2011-12-15T04:00:00Z,28.1530,-82.8010,18.8,1111122 
COMPS,ioos:station:USF.COMPS:FHP:1,2011-12-15T05:00:00Z,28.1530,-82.8010,19.0,1111122 
COMPS,ioos:station:USF.COMPS:FHP:1,2011-12-15T06:00:00Z,28.1530,-82.8010,18.1,1111122 
COMPS,ioos:station:USF.COMPS:FHP:1,2011-12-15T07:00:00Z,28.1530,-82.8010,17.4,1111122 
COMPS,ioos:station:USF.COMPS:FHP:1,2011-12-15T16:00:00Z,28.1530,-82.8010,22.3,1111122 
COMPS,ioos:station:USF.COMPS:FHP:1,2011-12-15T17:00:00Z,28.1530,-82.8010,23.0,1111122 
COMPS,ioos:station:USF.COMPS:FHP:1,2011-12-15T18:00:00Z,28.1530,-82.8010,23.3,1111122 
COMPS,ioos:station:USF.COMPS:FHP:1,2011-12-15T19:00:00Z,28.1530,-82.8010,24.0,1111122 
COMPS,ioos:station:USF.COMPS:FHP:1,2011-12-15T20:00:00Z,28.1530,-82.8010,23.9,1111122 
COMPS,ioos:station:USF.COMPS:FHP:1,2011-12-15T21:00:00Z,28.1530,-82.8010,23.7,1111122 
COMPS,ioos:station:USF.COMPS:FHP:1,2011-12-15T22:00:00Z,28.1530,-82.8010,23.5,1111122 
COMPS,ioos:station:USF.COMPS:FHP:1,2011-12-15T23:00:00Z,28.1530,-82.8010,22.8,1111122 
COMPS,ioos:station:USF.COMPS:FHP:1,2011-12-16T00:00:00Z,28.1530,-82.8010,22.3,1111122 
COMPS,ioos:station:USF.COMPS:FHP:1,2011-12-16T01:00:00Z,28.1530,-82.8010,21.9,1111122 
COMPS,ioos:station:USF.COMPS:FHP:1,2011-12-16T02:00:00Z,28.1530,-82.8010,21.6,1111122 
COMPS,ioos:station:USF.COMPS:FHP:1,2011-12-16T03:00:00Z,28.1530,-82.8010,21.4,1111122 
COMPS,ioos:station:USF.COMPS:FHP:1,2011-12-16T04:00:00Z,28.1530,-82.8010,21.0,1111122 
COMPS,ioos:station:USF.COMPS:FHP:1,2011-12-16T05:00:00Z,28.1530,-82.8010,20.5,1111122 
COMPS,ioos:station:USF.COMPS:FHP:1,2011-12-16T06:00:00Z,28.1530,-82.8010,19.8,1111122 
COMPS,ioos:station:USF.COMPS:FHP:1,2011-12-16T07:00:00Z,28.1530,-82.8010,19.4,1111122 
COMPS,ioos:station:USF.COMPS:FHP:1,2011-12-16T08:00:00Z,28.1530,-82.8010,19.2,1111122 
COMPS,ioos:station:USF.COMPS:FHP:1,2011-12-16T09:00:00Z,28.1530,-82.8010,18.8,1111122 
COMPS,ioos:station:USF.COMPS:FHP:1,2011-12-16T10:00:00Z,28.1530,-82.8010,18.6,1111122 
COMPS,ioos:station:USF.COMPS:FHP:1,2011-12-16T11:00:00Z,28.1530,-82.8010,18.2,1111122 
COMPS,ioos:station:USF.COMPS:FHP:1,2011-12-16T12:00:00Z,28.1530,-82.8010,17.6,1111122 
COMPS,ioos:station:USF.COMPS:FHP:1,2011-12-16T13:00:00Z,28.1530,-82.8010,18.4,1111122 
COMPS,ioos:station:USF.COMPS:FHP:1,2011-12-16T14:00:00Z,28.1530,-82.8010,20.3,1111122 
COMPS,ioos:station:USF.COMPS:FHP:1,2011-12-16T15:00:00Z,28.1530,-82.8010,21.9,1111122 
COMPS,ioos:station:USF.COMPS:FHP:1,2011-12-16T16:00:00Z,28.1530,-82.8010,22.5,1111122 
COMPS,ioos:station:USF.COMPS:FHP:1,2011-12-16T17:00:00Z,28.1530,-82.8010,21.2,1111122 
COMPS,ioos:station:USF.COMPS:FHP:1,2011-12-16T18:00:00Z,28.1530,-82.8010,21.0,1111122 
COMPS,ioos:station:USF.COMPS:FHP:1,2011-12-16T19:00:00Z,28.1530,-82.8010,20.9,1111122 
COMPS,ioos:station:USF.COMPS:FHP:1,2011-12-16T20:00:00Z,28.1530,-82.8010,20.8,1111122 
COMPS,ioos:station:USF.COMPS:FHP:1,2011-12-16T21:00:00Z,28.1530,-82.8010,20.7,1111122 
COMPS,ioos:station:USF.COMPS:FHP:1,2011-12-16T22:00:00Z,28.1530,-82.8010,20.7,1111122 
COMPS,ioos:station:USF.COMPS:FHP:1,2011-12-16T23:00:00Z,28.1530,-82.8010,20.9,1111122 
COMPS,ioos:station:USF.COMPS:FHP:1,2011-12-17T00:00:00Z,28.1530,-82.8010,21.0,1111122 
COMPS,ioos:station:USF.COMPS:FHP:1,2011-12-17T01:00:00Z,28.1530,-82.8010,21.1,1111122 
COMPS,ioos:station:USF.COMPS:FHP:1,2011-12-17T02:00:00Z,28.1530,-82.8010,20.6,1111122 
COMPS,ioos:station:USF.COMPS:FHP:1,2011-12-17T03:00:00Z,28.1530,-82.8010,19.9,1111122 
COMPS,ioos:station:USF.COMPS:FHP:1,2011-12-17T04:00:00Z,28.1530,-82.8010,19.2,1111122 
COMPS,ioos:station:USF.COMPS:FHP:1,2011-12-17T05:00:00Z,28.1530,-82.8010,19.1,1111122 
COMPS,ioos:station:USF.COMPS:FHP:1,2011-12-17T06:00:00Z,28.1530,-82.8010,18.5,1111122 
COMPS,ioos:station:USF.COMPS:FHP:1,2011-12-17T07:00:00Z,28.1530,-82.8010,18.2,1111122 
COMPS,ioos:station:USF.COMPS:FHP:1,2011-12-17T08:00:00Z,28.1530,-82.8010,18.6,1111122 
COMPS,ioos:station:USF.COMPS:FHP:1,2011-12-17T09:00:00Z,28.1530,-82.8010,18.3,1111122 
COMPS,ioos:station:USF.COMPS:FHP:1,2011-12-17T10:00:00Z,28.1530,-82.8010,18.6,1111122 
COMPS,ioos:station:USF.COMPS:FHP:1,2011-12-17T11:00:00Z,28.1530,-82.8010,18.7,1111122 
COMPS,ioos:station:USF.COMPS:FHP:1,2011-12-17T12:00:00Z,28.1530,-82.8010,17.9,1111122 
COMPS,ioos:station:USF.COMPS:FHP:1,2011-12-17T13:00:00Z,28.1530,-82.8010,18.4,1111122 
COMPS,ioos:station:USF.COMPS:FHP:1,2011-12-17T14:00:00Z,28.1530,-82.8010,19.4,1111122 
COMPS,ioos:station:USF.COMPS:FHP:1,2011-12-17T15:00:00Z,28.1530,-82.8010,20.0,1111122 
COMPS,ioos:station:USF.COMPS:FHP:1,2011-12-17T16:00:00Z,28.1530,-82.8010,20.0,1111122 
COMPS,ioos:station:USF.COMPS:FHP:1,2011-12-17T17:00:00Z,28.1530,-82.8010,19.9,1111122 
COMPS,ioos:station:USF.COMPS:FHP:1,2011-12-17T18:00:00Z,28.1530,-82.8010,20.8,1111122 
COMPS,ioos:station:USF.COMPS:FHP:1,2011-12-17T19:00:00Z,28.1530,-82.8010,20.9,1111122 
COMPS,ioos:station:USF.COMPS:FHP:1,2011-12-17T20:00:00Z,28.1530,-82.8010,20.8,1111122 
COMPS,ioos:station:USF.COMPS:FHP:1,2011-12-17T21:00:00Z,28.1530,-82.8010,20.5,1111122 
COMPS,ioos:station:USF.COMPS:FHP:1,2011-12-17T22:00:00Z,28.1530,-82.8010,20.1,1111122 
COMPS,ioos:station:USF.COMPS:FHP:1,2011-12-17T23:00:00Z,28.1530,-82.8010,19.9,1111122 
COMPS,ioos:station:USF.COMPS:FHP:1,2011-12-18T00:00:00Z,28.1530,-82.8010,19.8,1111122 
COMPS,ioos:station:USF.COMPS:FHP:1,2011-12-18T01:00:00Z,28.1530,-82.8010,19.8,1111122 
COMPS,ioos:station:USF.COMPS:FHP:1,2011-12-18T02:00:00Z,28.1530,-82.8010,19.3,1111122 
COMPS,ioos:station:USF.COMPS:FHP:1,2011-12-18T03:00:00Z,28.1530,-82.8010,19.4,1111122 
COMPS,ioos:station:USF.COMPS:FHP:1,2011-12-18T04:00:00Z,28.1530,-82.8010,19.4,1111122 